Location: ????????
(55.7667°N, 37.4833°E)
Time: 13:38:23
(UTC+00:00)

Cosmos 2061 Rocket - Pass Details

Date: 19 May 2025
Orbit: 965 x 1012 km, 82.9° (Epoch: 21 June)

Event Time Altitude Azimuth Distance (km) Brightness Sun altitude
Rises 22:03:42 0° 348° (NNW) 3,761 8.5 -13.9°
Reaches altitude 10° 22:06:17 10° 352° (N) 2,805 7.6 -13.8°
Maximum altitude 22:12:43 66° 74° (ENE) 1,096 4.4 -13.6°
Enters shadow 22:18:51 11° 157° (SSE) 2,698 5.8 -13.4°
